Wetterdaten: Woche 27.11.06 - 03.12.06 (KW48)
Datum Zeit Temperatur Luftfeuchte Luftdruck Niederschlag Windrichtung Wind
27.11.2006 00:00 3,2 C 100 % 1025 hPa 0,0 l/m N 0,0 km/h (0 Bft)
27.11.2006 01:00 2,7 C 100 % 1025 hPa 0,0 l/m N 0,0 km/h (0 Bft)
27.11.2006 02:00 2,1 C 100 % 1025 hPa 0,0 l/m N 0,0 km/h (0 Bft)
27.11.2006 03:00 1,5 C 100 % 1025 hPa 0,0 l/m N 0,0 km/h (0 Bft)
27.11.2006 04:00 1,9 C 100 % 1025 hPa 0,0 l/m N 0,0 km/h (0 Bft)
27.11.2006 05:00 2,0 C 100 % 1024 hPa 0,0 l/m N 0,0 km/h (0 Bft)
27.11.2006 06:00 2,3 C 100 % 1024 hPa 0,0 l/m N 0,0 km/h (0 Bft)
27.11.2006 07:00 2,4 C 100 % 1025 hPa 0,0 l/m N 0,0 km/h (0 Bft)
27.11.2006 08:00 2,4 C 100 % 1025 hPa 0,0 l/m N 0,1 km/h (0 Bft)
27.11.2006 09:00 2,8 C 100 % 1025 hPa 0,0 l/m N 2,3 km/h (1 Bft)
27.11.2006 10:00 3,5 C 100 % 1025 hPa 0,0 l/m N-NW 3,2 km/h (1 Bft)
27.11.2006 11:00 4,2 C 100 % 1025 hPa 0,0 l/m O 0,4 km/h (0 Bft)
27.11.2006 12:00 5,1 C 100 % 1025 hPa 0,0 l/m N-NO 0,5 km/h (0 Bft)
27.11.2006 13:00 5,9 C 100 % 1025 hPa 0,0 l/m NW 1,9 km/h (1 Bft)
27.11.2006 14:00 6,5 C 100 % 1025 hPa 0,0 l/m S 0,9 km/h (0 Bft)
27.11.2006 15:00 6,4 C 100 % 1026 hPa 0,0 l/m S 1,9 km/h (1 Bft)
27.11.2006 16:00 5,8 C 100 % 1026 hPa 0,0 l/m S-SW 0,3 km/h (0 Bft)
27.11.2006 17:00 4,6 C 100 % 1026 hPa 0,0 l/m N 0,0 km/h (0 Bft)
27.11.2006 18:00 3,9 C 100 % 1026 hPa 0,0 l/m N 0,0 km/h (0 Bft)
27.11.2006 19:00 3,3 C 100 % 1026 hPa 0,0 l/m N 0,0 km/h (0 Bft)
27.11.2006 20:00 2,6 C 100 % 1026 hPa 0,0 l/m N 0,0 km/h (0 Bft)
27.11.2006 21:00 1,9 C 100 % 1026 hPa 0,0 l/m N 0,0 km/h (0 Bft)
27.11.2006 22:00 1,2 C 100 % 1026 hPa 0,0 l/m N 0,0 km/h (0 Bft)
27.11.2006 23:00 0,7 C 100 % 1026 hPa 0,0 l/m N 0,0 km/h (0 Bft)
28.11.2006 00:00 0,4 C 100 % 1026 hPa 0,0 l/m N 0,4 km/h (0 Bft)
28.11.2006 01:00 0,1 C 100 % 1026 hPa 0,0 l/m NW 0,4 km/h (0 Bft)
28.11.2006 02:00 -0,1 C 100 % 1026 hPa 0,0 l/m N 0,0 km/h (0 Bft)
28.11.2006 03:00 -0,4 C 100 % 1025 hPa 0,0 l/m N 0,0 km/h (0 Bft)
28.11.2006 04:00 -0,1 C 100 % 1025 hPa 0,0 l/m N 0,0 km/h (0 Bft)
28.11.2006 05:00 0,2 C 100 % 1025 hPa 0,0 l/m N 0,0 km/h (0 Bft)
28.11.2006 06:00 0,5 C 100 % 1024 hPa 0,0 l/m N 0,0 km/h (0 Bft)
28.11.2006 07:00 0,3 C 100 % 1024 hPa 0,0 l/m N 0,0 km/h (0 Bft)
28.11.2006 08:00 0,1 C 100 % 1024 hPa 0,0 l/m N 0,0 km/h (0 Bft)
28.11.2006 09:00 0,2 C 100 % 1024 hPa 0,0 l/m N 0,0 km/h (0 Bft)
28.11.2006 10:00 0,9 C 100 % 1024 hPa 0,0 l/m N 0,0 km/h (0 Bft)
28.11.2006 11:00 1,6 C 100 % 1024 hPa 0,0 l/m N 1,8 km/h (1 Bft)
28.11.2006 12:00 2,2 C 100 % 1023 hPa 0,0 l/m N-NO 1,2 km/h (1 Bft)
28.11.2006 13:00 2,8 C 100 % 1023 hPa 0,0 l/m N-NO 1,7 km/h (1 Bft)
28.11.2006 14:00 3,2 C 100 % 1022 hPa 0,0 l/m W-NW 0,7 km/h (0 Bft)
28.11.2006 15:00 3,3 C 100 % 1022 hPa 2,0 l/m N-NW 0,6 km/h (0 Bft)
28.11.2006 16:00 3,1 C 100 % 1023 hPa 0,0 l/m N 0,0 km/h (0 Bft)
28.11.2006 17:00 2,9 C 100 % 1023 hPa 0,0 l/m W 0,2 km/h (0 Bft)
28.11.2006 18:00 2,9 C 100 % 1024 hPa 0,0 l/m S 0,6 km/h (0 Bft)
28.11.2006 19:00 3,0 C 100 % 1024 hPa 0,0 l/m S-SW 5,3 km/h (1 Bft)
28.11.2006 20:00 2,7 C 100 % 1025 hPa 0,0 l/m S-SW 7,8 km/h (2 Bft)
28.11.2006 21:00 2,6 C 100 % 1026 hPa 0,0 l/m S-SW 6,7 km/h (2 Bft)
28.11.2006 22:00 3,1 C 100 % 1026 hPa 0,0 l/m S-SW 8,1 km/h (2 Bft)
28.11.2006 23:00 3,2 C 100 % 1026 hPa 0,0 l/m S-SW 7,3 km/h (2 Bft)
29.11.2006 00:00 3,1 C 100 % 1026 hPa 0,0 l/m S 1,8 km/h (1 Bft)
29.11.2006 01:00 2,7 C 100 % 1026 hPa 0,0 l/m S-SW 0,5 km/h (0 Bft)
29.11.2006 02:00 2,4 C 100 % 1026 hPa 0,0 l/m S-SW 0,2 km/h (0 Bft)
29.11.2006 03:00 1,9 C 100 % 1026 hPa 0,0 l/m S 0,3 km/h (0 Bft)
29.11.2006 04:00 1,6 C 100 % 1027 hPa 0,0 l/m S 0,7 km/h (0 Bft)
29.11.2006 05:00 1,3 C 100 % 1027 hPa 0,0 l/m N 0,0 km/h (0 Bft)
29.11.2006 06:00 1,2 C 100 % 1027 hPa 0,0 l/m N 0,0 km/h (0 Bft)
29.11.2006 07:00 1,5 C 100 % 1028 hPa 0,0 l/m N 0,0 km/h (0 Bft)
29.11.2006 08:00 2,0 C 100 % 1029 hPa 0,0 l/m N 0,0 km/h (0 Bft)
29.11.2006 09:00 2,7 C 100 % 1030 hPa 0,0 l/m S 3,3 km/h (1 Bft)
29.11.2006 10:00 3,4 C 100 % 1030 hPa 0,0 l/m S 3,5 km/h (1 Bft)
29.11.2006 11:00 3,9 C 100 % 1030 hPa 0,0 l/m S 1,5 km/h (1 Bft)
29.11.2006 12:00 4,4 C 100 % 1031 hPa 1,0 l/m S 0,6 km/h (0 Bft)
29.11.2006 13:00 4,8 C 100 % 1031 hPa 0,0 l/m S 0,7 km/h (0 Bft)
29.11.2006 14:00 5,0 C 100 % 1031 hPa 2,0 l/m N 0,0 km/h (0 Bft)
29.11.2006 15:00 5,2 C 100 % 1032 hPa 1,0 l/m N 0,0 km/h (0 Bft)
29.11.2006 16:00 5,3 C 100 % 1033 hPa 0,0 l/m N 0,0 km/h (0 Bft)
29.11.2006 17:00 5,3 C 100 % 1033 hPa 0,0 l/m N 0,0 km/h (0 Bft)
29.11.2006 18:00 5,3 C 100 % 1033 hPa 0,0 l/m N 0,0 km/h (0 Bft)
29.11.2006 19:00 5,6 C 100 % 1034 hPa 0,0 l/m W-NW 0,4 km/h (0 Bft)
29.11.2006 20:00 5,9 C 100 % 1034 hPa 1,0 l/m NW 0,2 km/h (0 Bft)
29.11.2006 21:00 6,2 C 100 % 1034 hPa 0,0 l/m N 0,2 km/h (0 Bft)
29.11.2006 22:00 6,5 C 100 % 1034 hPa 0,0 l/m N-NW 3,2 km/h (1 Bft)
29.11.2006 23:00 6,9 C 100 % 1035 hPa 0,0 l/m N-NO 7,9 km/h (2 Bft)
30.11.2006 00:00 6,8 C 100 % 1034 hPa 0,0 l/m N-NO 9,3 km/h (2 Bft)
30.11.2006 01:00 6,7 C 100 % 1034 hPa 0,0 l/m N-NO 9,4 km/h (2 Bft)
30.11.2006 02:00 6,4 C 100 % 1034 hPa 0,0 l/m N-NO 9,8 km/h (2 Bft)
30.11.2006 03:00 6,2 C 100 % 1034 hPa 0,0 l/m N-NO 8,7 km/h (2 Bft)
30.11.2006 04:00 6,1 C 100 % 1034 hPa 0,0 l/m N-NO 8,8 km/h (2 Bft)
30.11.2006 05:00 6,0 C 100 % 1033 hPa 0,0 l/m N-NO 10,9 km/h (2 Bft)
30.11.2006 06:00 6,0 C 100 % 1033 hPa 0,0 l/m N-NO 9,8 km/h (2 Bft)
30.11.2006 07:00 6,0 C 100 % 1033 hPa 0,0 l/m N-NO 9,5 km/h (2 Bft)
30.11.2006 08:00 5,8 C 100 % 1034 hPa 0,0 l/m N-NO 10,9 km/h (2 Bft)
30.11.2006 09:00 5,6 C 100 % 1033 hPa 0,0 l/m NO 10,0 km/h (2 Bft)
30.11.2006 10:00 5,7 C 100 % 1034 hPa 0,0 l/m N-NO 10,8 km/h (2 Bft)
30.11.2006 11:00 5,8 C 100 % 1033 hPa 0,0 l/m O-NO 10,6 km/h (2 Bft)
30.11.2006 12:00 5,8 C 100 % 1033 hPa 0,0 l/m O-NO 11,5 km/h (2 Bft)
30.11.2006 13:00 5,9 C 100 % 1032 hPa 0,0 l/m NO 9,4 km/h (2 Bft)
30.11.2006 14:00 5,9 C 100 % 1031 hPa 0,0 l/m NO 8,0 km/h (2 Bft)
30.11.2006 15:00 5,9 C 100 % 1031 hPa 0,0 l/m NO 7,5 km/h (2 Bft)
30.11.2006 16:00 5,8 C 100 % 1031 hPa 0,0 l/m N-NO 7,4 km/h (2 Bft)
30.11.2006 17:00 5,6 C 100 % 1032 hPa 0,0 l/m O 4,0 km/h (1 Bft)
30.11.2006 18:00 5,4 C 100 % 1032 hPa 0,0 l/m N-NO 3,4 km/h (1 Bft)
30.11.2006 19:00 5,3 C 100 % 1032 hPa 0,0 l/m N-NO 0,5 km/h (0 Bft)
30.11.2006 20:00 5,3 C 100 % 1032 hPa 0,0 l/m N 0,0 km/h (0 Bft)
30.11.2006 21:00 5,3 C 100 % 1032 hPa 0,0 l/m N 0,2 km/h (0 Bft)
30.11.2006 22:00 5,2 C 100 % 1032 hPa 0,0 l/m S-SW 2,2 km/h (1 Bft)
30.11.2006 23:00 5,3 C 100 % 1031 hPa 0,0 l/m S-SW 4,2 km/h (1 Bft)
01.12.2006 00:00 5,1 C 100 % 1031 hPa 0,0 l/m S-SW 3,8 km/h (1 Bft)
01.12.2006 01:00 5,0 C 100 % 1031 hPa 0,0 l/m W-SW 2,2 km/h (1 Bft)
01.12.2006 02:00 5,1 C 100 % 1031 hPa 0,0 l/m S-SW 4,3 km/h (1 Bft)
01.12.2006 03:00 5,3 C 100 % 1031 hPa 0,0 l/m W-SW 2,9 km/h (1 Bft)
01.12.2006 04:00 5,2 C 100 % 1031 hPa 0,0 l/m S-SW 5,1 km/h (1 Bft)
01.12.2006 05:00 5,1 C 100 % 1031 hPa 0,0 l/m S-SW 5,2 km/h (1 Bft)
01.12.2006 06:00 5,0 C 100 % 1031 hPa 0,0 l/m W-SW 7,4 km/h (2 Bft)
01.12.2006 07:00 4,9 C 100 % 1031 hPa 0,0 l/m S-SW 5,8 km/h (2 Bft)
01.12.2006 08:00 4,7 C 100 % 1031 hPa 0,0 l/m W-SW 5,4 km/h (1 Bft)
01.12.2006 09:00 4,8 C 100 % 1031 hPa 0,0 l/m S-SW 7,7 km/h (2 Bft)
01.12.2006 10:00 4,8 C 100 % 1032 hPa 0,0 l/m W-SW 6,0 km/h (2 Bft)
01.12.2006 11:00 5,3 C 100 % 1031 hPa 0,0 l/m W-SW 4,7 km/h (1 Bft)
01.12.2006 12:00 5,7 C 100 % 1031 hPa 0,0 l/m S-SW 7,1 km/h (2 Bft)
01.12.2006 13:00 5,7 C 100 % 1030 hPa 0,0 l/m S-SW 6,4 km/h (2 Bft)
01.12.2006 14:00 5,8 C 100 % 1030 hPa 0,0 l/m S 3,2 km/h (1 Bft)
01.12.2006 15:00 5,8 C 100 % 1030 hPa 0,0 l/m W 2,7 km/h (1 Bft)
01.12.2006 16:00 5,5 C 100 % 1030 hPa 0,0 l/m S-SW 3,5 km/h (1 Bft)
01.12.2006 17:00 5,1 C 100 % 1029 hPa 0,0 l/m SW 3,9 km/h (1 Bft)
01.12.2006 18:00 4,8 C 100 % 1029 hPa 0,0 l/m N 0,1 km/h (0 Bft)
01.12.2006 19:00 4,6 C 100 % 1029 hPa 0,0 l/m S-SO 0,5 km/h (0 Bft)
01.12.2006 20:00 4,4 C 100 % 1029 hPa 0,0 l/m O-SO 3,2 km/h (1 Bft)
01.12.2006 21:00 4,2 C 100 % 1028 hPa 0,0 l/m O-SO 1,4 km/h (1 Bft)
01.12.2006 22:00 3,9 C 100 % 1028 hPa 0,0 l/m S-SW 4,9 km/h (1 Bft)
01.12.2006 23:00 3,4 C 100 % 1028 hPa 0,0 l/m W-SW 5,6 km/h (1 Bft)
02.12.2006 00:00 3,1 C 100 % 1027 hPa 0,0 l/m SW 7,3 km/h (2 Bft)
02.12.2006 01:00 2,8 C 100 % 1027 hPa 0,0 l/m S-SW 7,5 km/h (2 Bft)
02.12.2006 02:00 2,7 C 100 % 1027 hPa 0,0 l/m S-SW 6,8 km/h (2 Bft)
02.12.2006 03:00 3,0 C 100 % 1026 hPa 0,0 l/m S-SW 5,6 km/h (1 Bft)
02.12.2006 04:00 3,0 C 100 % 1026 hPa 0,0 l/m S-SW 2,1 km/h (1 Bft)
02.12.2006 05:00 2,8 C 100 % 1025 hPa 0,0 l/m S-SW 4,5 km/h (1 Bft)
02.12.2006 06:00 2,6 C 100 % 1025 hPa 0,0 l/m S-SW 6,2 km/h (2 Bft)
02.12.2006 07:00 2,5 C 100 % 1025 hPa 0,0 l/m S-SW 5,5 km/h (1 Bft)
02.12.2006 08:00 2,4 C 100 % 1025 hPa 0,0 l/m W-NW 1,3 km/h (1 Bft)
02.12.2006 09:00 2,2 C 100 % 1025 hPa 0,0 l/m W-SW 3,1 km/h (1 Bft)
02.12.2006 10:00 2,2 C 100 % 1025 hPa 0,0 l/m S-SW 4,4 km/h (1 Bft)
02.12.2006 11:00 2,7 C 100 % 1024 hPa 0,0 l/m S-SW 5,5 km/h (1 Bft)
02.12.2006 12:00 3,0 C 100 % 1024 hPa 0,0 l/m S-SW 7,5 km/h (2 Bft)
02.12.2006 13:00 3,5 C 100 % 1023 hPa 0,0 l/m S 6,7 km/h (2 Bft)
02.12.2006 14:00 3,8 C 100 % 1023 hPa 0,0 l/m S 7,8 km/h (2 Bft)
02.12.2006 15:00 3,5 C 100 % 1023 hPa 0,0 l/m S-SW 7,6 km/h (2 Bft)
02.12.2006 16:00 3,2 C 100 % 1023 hPa 0,0 l/m S-SW 6,6 km/h (2 Bft)
02.12.2006 17:00 2,7 C 100 % 1023 hPa 0,0 l/m S-SW 6,6 km/h (2 Bft)
02.12.2006 18:00 2,5 C 100 % 1023 hPa 0,0 l/m S-SW 7,6 km/h (2 Bft)
02.12.2006 19:00 2,4 C 100 % 1023 hPa 0,0 l/m S 4,7 km/h (1 Bft)
02.12.2006 20:00 2,0 C 100 % 1023 hPa 0,0 l/m S-SW 5,8 km/h (2 Bft)
02.12.2006 21:00 1,8 C 100 % 1023 hPa 0,0 l/m S 1,4 km/h (1 Bft)
02.12.2006 22:00 1,7 C 100 % 1022 hPa 0,0 l/m S-SW 2,2 km/h (1 Bft)
02.12.2006 23:00 1,6 C 100 % 1022 hPa 0,0 l/m S-SO 0,6 km/h (0 Bft)
03.12.2006 00:00 1,8 C 100 % 1021 hPa 0,0 l/m S 4,2 km/h (1 Bft)
03.12.2006 01:00 1,8 C 100 % 1022 hPa 0,0 l/m S 5,7 km/h (1 Bft)
03.12.2006 02:00 1,8 C 100 % 1021 hPa 0,0 l/m S 11,3 km/h (2 Bft)
03.12.2006 03:00 2,0 C 100 % 1021 hPa 0,0 l/m S 10,4 km/h (2 Bft)
03.12.2006 04:00 2,2 C 100 % 1020 hPa 0,0 l/m S-SO 8,0 km/h (2 Bft)
03.12.2006 05:00 2,1 C 100 % 1019 hPa 0,0 l/m S 5,6 km/h (1 Bft)
03.12.2006 06:00 2,4 C 100 % 1019 hPa 0,0 l/m SO 2,9 km/h (1 Bft)
03.12.2006 07:00 2,3 C 100 % 1019 hPa 0,0 l/m S-SW 0,5 km/h (0 Bft)
03.12.2006 08:00 2,4 C 100 % 1018 hPa 0,0 l/m N 0,1 km/h (0 Bft)
03.12.2006 09:00 2,8 C 100 % 1018 hPa 0,0 l/m S-SO 2,0 km/h (1 Bft)
03.12.2006 10:00 3,6 C 100 % 1018 hPa 0,0 l/m S-SO 4,9 km/h (1 Bft)
03.12.2006 11:00 4,3 C 98 % 1017 hPa 0,0 l/m S 2,7 km/h (1 Bft)
03.12.2006 12:00 7,1 C 85 % 1016 hPa 0,0 l/m S 5,7 km/h (1 Bft)
03.12.2006 13:00 9,6 C 75 % 1016 hPa 0,0 l/m S 8,5 km/h (2 Bft)
03.12.2006 14:00 10,0 C 73 % 1015 hPa 0,0 l/m S 11,8 km/h (2 Bft)
03.12.2006 15:00 8,6 C 81 % 1014 hPa 0,0 l/m S-SW 10,3 km/h (2 Bft)
03.12.2006 16:00 7,0 C 88 % 1014 hPa 0,0 l/m S-SW 9,5 km/h (2 Bft)
03.12.2006 17:00 5,7 C 94 % 1014 hPa 0,0 l/m S-SW 9,0 km/h (2 Bft)
03.12.2006 18:00 5,5 C 94 % 1013 hPa 0,0 l/m S-SW 10,0 km/h (2 Bft)
03.12.2006 19:00 5,2 C 93 % 1013 hPa 0,0 l/m S 7,6 km/h (2 Bft)
03.12.2006 20:00 4,9 C 95 % 1012 hPa 0,0 l/m S 4,7 km/h (1 Bft)
03.12.2006 21:00 5,3 C 95 % 1012 hPa 0,0 l/m S-SW 8,0 km/h (2 Bft)
03.12.2006 22:00 10,3 C 74 % 1012 hPa 0,0 l/m SW 16,7 km/h (3 Bft)
03.12.2006 23:00 10,0 C 85 % 1013 hPa 0,0 l/m W-SW 14,1 km/h (3 Bft)
Min-Datum _ 28.11.06 03.12.06 03.12.06 - - 27.11.06
_ Min-Zeit 03:26 22:36 20:04 - - 00:00
Minimum _ -0,5 C 69 % 1012 hPa - - 0,0 km/h (0 Bft)
Max-Datum _ 03.12.06 27.11.06 29.11.06 28.11.06 - 03.12.06
_ Max-Zeit 22:35 00:00 23:19 15:42 - 23:33
Maximum _ 11,1 C 100 % 1035 hPa 2,0 l/m - 26,3 km/h
W-SW (4 Bft)
Durchschnitt _ 3,9 C 99 % 1026 hPa #7,0 l/m S-SW 3,9 km/h (1 Bft)

Durchschnitt Minimum Temp.3,7 C
Durchschnitt Maximum Temp.4,1 C